Location: Hodgeman County Ambulance
(38.0844°N, 99.8949°W)
Time: 22:11:08
(UTC+00:00)

N. Korean satellite - Pass Details

Date: 05 October 2021
Orbit: 450 x 494 km, 97.3° (Epoch: 28 October)

Event Time Altitude Azimuth Distance (km) Brightness Sun altitude
Rises 11:23:27 0° 22° (NNE) 2,567 10.6 -15.7°
Reaches altitude 10° 11:25:40 10° 32° (NNE) 1,687 9.8 -15.3°
Maximum altitude 11:28:58 32° 97° (E) 859 8.5 -14.6°
Drops below altitude 10° 11:32:16 10° 163° (SSE) 1,687 9.5 -14.0°
Sets 11:34:29 0° 173° (S) 2,566 10.3 -13.5°
